Orbital Elements at Epoch 2459200.5 (2020-Dec-17.0) TDB
Reference: JPL 28 (heliocentric ecliptic J2000)
Element | Value | Uncertainty (1-sigma) | Units |
e | .180215446117256 | 4.7589e-08 | |
a | 3.019236215001453 | 1.8345e-08 | au |
q | 2.475123213581591 | 1.5312e-07 | au |
i | 2.215341417623949 | 3.2615e-06 | deg |
node | 239.7382878238655 | 0.00010516 | deg |
peri | 86.84617297432744 | 0.00010576 | deg |
M | 10.7865307341536 | 8.9896e-06 | deg |
tp | 2459143.085267002474 (2020-Oct-20.58526700) | 4.7921e-05 | TDB |
period | 1916.214247984625 5.25 | 1.7465e-05 4.782e-08 | d yr |
n | .1878704327444748 | 1.7123e-09 | deg/d |
Q | 3.563349216421316 | 2.1651e-08 | au |
|
| | Orbit Determination Parameters
Additional Information
|